TimeEST,TemperatureF,Dew PointF,Humidity,Sea Level PressureIn,VisibilityMPH,Wind Direction,Wind SpeedMPH,Gust SpeedMPH,PrecipitationIn,Events,Conditions,WindDirDegrees,DateUTC
12:15 AM,33.8,33.8,100,30.60,10.0,Calm,Calm,-,N/A,,Clear,0,2013-11-05 05:15:00
12:35 AM,33.8,32.0,93,30.59,10.0,Calm,Calm,-,N/A,,Clear,0,2013-11-05 05:35:00
12:55 AM,35.6,33.8,93,30.61,10.0,Calm,Calm,-,N/A,,Clear,0,2013-11-05 05:55:00
1:15 AM,33.8,33.8,100,30.61,10.0,Calm,Calm,-,N/A,,Clear,0,2013-11-05 06:15:00
1:35 AM,33.8,33.8,100,30.61,10.0,Calm,Calm,-,N/A,,Clear,0,2013-11-05 06:35:00
1:55 AM,33.8,32.0,93,30.61,10.0,Calm,Calm,-,N/A,,Clear,0,2013-11-05 06:55:00
2:15 AM,33.8,32.0,93,30.60,10.0,SE,3.5,-,N/A,,Scattered Clouds,140,2013-11-05 07:15:00
2:35 AM,32.0,32.0,100,30.59,10.0,Calm,Calm,-,N/A,,Partly Cloudy,0,2013-11-05 07:35:00
2:55 AM,32.0,32.0,100,30.58,10.0,Calm,Calm,-,N/A,,Clear,0,2013-11-05 07:55:00
3:15 AM,30.2,30.2,100,30.59,10.0,Calm,Calm,-,N/A,,Scattered Clouds,0,2013-11-05 08:15:00
3:35 AM,32.0,32.0,100,30.59,10.0,Calm,Calm,-,N/A,,Mostly Cloudy,0,2013-11-05 08:35:00
3:55 AM,33.8,33.8,100,30.60,10.0,Calm,Calm,-,N/A,,Overcast,0,2013-11-05 08:55:00
4:15 AM,33.8,33.8,100,30.59,10.0,Calm,Calm,-,N/A,,Overcast,0,2013-11-05 09:15:00
4:35 AM,33.8,32.0,93,30.60,10.0,Calm,Calm,-,N/A,,Scattered Clouds,0,2013-11-05 09:35:00
4:55 AM,32.0,32.0,100,30.59,10.0,Calm,Calm,-,N/A,,Clear,0,2013-11-05 09:55:00
5:15 AM,32.0,32.0,100,30.59,10.0,Calm,Calm,-,N/A,,Clear,0,2013-11-05 10:15:00
5:35 AM,30.2,30.2,100,30.60,10.0,Calm,Calm,-,N/A,,Clear,0,2013-11-05 10:35:00
5:55 AM,30.2,28.4,93,30.61,10.0,Calm,Calm,-,N/A,,Clear,0,2013-11-05 10:55:00
6:15 AM,30.2,30.2,100,30.61,10.0,Calm,Calm,-,N/A,,Mostly Cloudy,0,2013-11-05 11:15:00
6:30 AM,30.2,30.2,100,30.61,10.0,Calm,Calm,-,N/A,,Mostly Cloudy,0,2013-11-05 11:30:00
6:45 AM,32.0,32.0,100,30.61,10.0,Calm,Calm,-,N/A,,Overcast,0,2013-11-05 11:45:00
9:50 AM,46.4,33.8,62,30.64,10.0,North,4.6,-,N/A,,Overcast,350,2013-11-05 14:50:00
10:50 AM,48.2,35.6,62,30.61,10.0,NNW,4.6,-,N/A,,Scattered Clouds,340,2013-11-05 15:50:00
11:45 AM,50.0,35.6,58,30.58,10.0,Calm,Calm,-,N/A,,Overcast,0,2013-11-05 16:45:00
1:50 PM,53.6,41.0,62,30.54,10.0,Calm,Calm,-,N/A,,Partly Cloudy,0,2013-11-05 18:50:00
2:50 PM,55.4,41.0,58,30.54,10.0,Calm,Calm,-,N/A,,Overcast,0,2013-11-05 19:50:00
6:55 PM,51.8,44.6,76,30.51,10.0,Calm,Calm,-,N/A,,Overcast,0,2013-11-05 23:55:00
7:15 PM,51.8,44.6,76,30.51,10.0,Calm,Calm,-,N/A,,Overcast,0,2013-11-06 00:15:00
7:35 PM,51.8,46.4,82,30.52,10.0,Calm,Calm,-,N/A,,Overcast,0,2013-11-06 00:35:00
7:55 PM,51.8,46.4,82,30.51,10.0,Calm,Calm,-,N/A,,Overcast,0,2013-11-06 00:55:00
8:15 PM,50.0,46.4,87,30.50,10.0,Calm,Calm,-,N/A,,Overcast,0,2013-11-06 01:15:00
8:35 PM,50.0,46.4,87,30.49,10.0,Calm,Calm,-,N/A,,Overcast,0,2013-11-06 01:35:00
8:55 PM,50.0,46.4,87,30.50,10.0,Calm,Calm,-,N/A,,Overcast,0,2013-11-06 01:55:00
9:15 PM,50.0,46.4,87,30.49,10.0,Calm,Calm,-,N/A,,Overcast,0,2013-11-06 02:15:00
9:35 PM,50.0,46.4,87,30.49,10.0,Calm,Calm,-,N/A,,Overcast,0,2013-11-06 02:35:00
9:55 PM,50.0,46.4,87,30.50,10.0,Calm,Calm,-,N/A,,Overcast,0,2013-11-06 02:55:00
10:15 PM,50.0,46.4,87,30.50,10.0,Calm,Calm,-,N/A,,Overcast,0,2013-11-06 03:15:00
10:35 PM,50.0,44.6,82,30.49,10.0,Calm,Calm,-,N/A,,Overcast,0,2013-11-06 03:35:00
10:55 PM,50.0,46.4,87,30.49,10.0,Calm,Calm,-,N/A,,Overcast,0,2013-11-06 03:55:00
11:15 PM,48.2,46.4,93,30.48,10.0,Calm,Calm,-,N/A,,Overcast,0,2013-11-06 04:15:00
11:35 PM,48.2,48.2,100,30.48,10.0,Calm,Calm,-,N/A,,Overcast,0,2013-11-06 04:35:00
11:55 PM,48.2,46.4,93,30.47,10.0,Calm,Calm,-,N/A,,Overcast,0,2013-11-06 04:55:00